Location: Brede
(50.9167°N, 0.6000°E)
Time: 19:23:27
(UTC+00:00)

Vanguard 1 Rocket - Pass Details

Date: 27 November 2020
Orbit: 655 x 4221 km, 34.3° (Epoch: 17 January)

Event Time Altitude Azimuth Distance (km) Brightness Sun altitude
Exits shadow 23:47:15 15° 105° (ESE) 6,165 11.4 -60.4°
Drops below altitude 10° 23:50:22 10° 97° (E) 6,374 11.6 -60.4°
Sets 23:55:51 0° 85° (E) 6,911 12.0 -60.4°
